TimeEDT,TemperatureF,Dew PointF,Humidity,Sea Level PressureIn,VisibilityMPH,Wind Direction,Wind SpeedMPH,Gust SpeedMPH,PrecipitationIn,Events,Conditions,WindDirDegrees,DateUTC
12:51 AM,57.0,55.9,96,29.88,6.0,Calm,Calm,-,N/A,,Overcast,0,2012-10-06 04:51:00
1:51 AM,57.9,55.9,93,29.87,7.0,Calm,Calm,-,N/A,,Overcast,0,2012-10-06 05:51:00
2:51 AM,57.0,55.9,96,29.86,7.0,Calm,Calm,-,N/A,,Scattered Clouds,0,2012-10-06 06:51:00
3:31 AM,55.4,53.6,94,29.84,2.5,Calm,Calm,-,N/A,,Clear,0,2012-10-06 07:31:00
3:41 AM,55.4,53.6,94,29.84,4.0,Calm,Calm,-,N/A,,Clear,0,2012-10-06 07:41:00
3:51 AM,55.0,55.0,100,29.85,5.0,Calm,Calm,-,N/A,,Clear,0,2012-10-06 07:51:00
4:51 AM,55.9,54.0,93,29.83,6.0,SE,3.5,-,N/A,,Clear,140,2012-10-06 08:51:00
5:51 AM,55.0,54.0,96,29.82,5.0,Calm,Calm,-,N/A,,Clear,0,2012-10-06 09:51:00
6:51 AM,55.0,54.0,96,29.82,4.0,SE,4.6,-,N/A,,Clear,140,2012-10-06 10:51:00
7:51 AM,57.2,55.4,94,29.80,3.0,SSE,4.6,-,N/A,,Clear,150,2012-10-06 11:51:00
8:51 AM,61.0,57.0,87,29.80,6.0,SE,6.9,-,N/A,,Clear,140,2012-10-06 12:51:00
9:51 AM,64.0,57.9,80,29.79,8.0,SE,5.8,-,N/A,,Clear,140,2012-10-06 13:51:00
10:51 AM,70.0,59.0,68,29.77,10.0,SSE,8.1,-,N/A,,Clear,150,2012-10-06 14:51:00
11:51 AM,73.9,59.0,59,29.73,10.0,SSE,10.4,19.6,N/A,,Clear,160,2012-10-06 15:51:00
12:51 PM,73.0,57.0,57,29.71,10.0,South,10.4,17.3,N/A,,Clear,190,2012-10-06 16:51:00
1:51 PM,78.1,55.9,46,29.67,10.0,SSW,13.8,21.9,N/A,,Clear,200,2012-10-06 17:51:00
2:51 PM,73.9,55.0,52,29.66,10.0,SW,6.9,-,N/A,,Overcast,220,2012-10-06 18:51:00
3:51 PM,66.2,60.8,83,29.69,5.0,West,5.8,-,N/A,Rain,Light Rain,270,2012-10-06 19:51:00
4:51 PM,63.0,55.9,78,29.73,10.0,WNW,12.7,23.0,0.00,,Overcast,300,2012-10-06 20:51:00
5:27 PM,60.8,51.8,72,29.77,10.0,NW,10.4,-,0.00,,Overcast,320,2012-10-06 21:27:00
5:51 PM,59.0,50.0,72,29.77,10.0,NW,11.5,-,N/A,,Overcast,310,2012-10-06 21:51:00
6:51 PM,57.2,46.4,67,29.80,10.0,WNW,8.1,-,N/A,,Overcast,300,2012-10-06 22:51:00
7:51 PM,54.0,46.0,75,29.82,10.0,NW,4.6,-,N/A,,Clear,320,2012-10-06 23:51:00
8:51 PM,53.1,45.0,74,29.85,10.0,West,5.8,-,N/A,,Clear,280,2012-10-07 00:51:00
9:51 PM,52.0,45.0,77,29.88,10.0,Calm,Calm,-,N/A,,Scattered Clouds,0,2012-10-07 01:51:00
10:51 PM,48.9,43.0,80,29.89,10.0,Calm,Calm,-,N/A,,Clear,0,2012-10-07 02:51:00
11:51 PM,45.0,42.1,90,29.91,10.0,Calm,Calm,-,N/A,,Clear,0,2012-10-07 03:51:00